FW4808 Weather Reports


time (UTC)temp
F
wind
direction
speed
knots
gust
knots
rain 1hr
in
rain 24hr
in
rain mn
in
humidity
%
barometer
mb
20260507111217 51 0 0.0 0.0 0.00 0.14 0.01 64 1012.2
20260507110503 51 271 0.0 3.5 0.00 0.14 0.01 66 1012.0
20260507110004 51 271 0.0 3.5 0.00 0.14 0.01 67 1012.0
20260507105504 51 284 0.0 2.6 0.00 0.14 0.01 68 1011.8
20260507105003 51 284 0.0 2.6 0.00 0.14 0.01 70 1011.8
20260507104718 51 0 0.0 0.0 0.00 0.14 0.01 73 1011.8
20260507104003 51 0 0.0 0.0 0.00 0.14 0.01 75 1011.6
20260507103503 51 0 0.0 0.0 0.00 0.14 0.01 74 1011.6
20260507103004 51 0 0.0 0.0 0.00 0.14 0.01 75 1011.7
20260507102503 51 0 0.0 0.0 0.00 0.14 0.01 74 1011.8
20260507102003 51 0 0.0 0.0 0.00 0.14 0.01 73 1011.6
20260507101718 51 0 0.0 0.0 0.00 0.14 0.01 74 1011.4
20260507101003 51 0 0.0 0.0 0.00 0.14 0.01 74 1011.2
20260507100503 51 0 0.0 0.0 0.00 0.14 0.01 75 1011.2
20260507100004 51 0 0.0 0.0 0.00 0.14 0.01 73 1011.2
20260507095717 51 0 0.0 0.0 0.00 0.14 0.01 73 1011.1
20260507095004 51 319 0.0 2.6 0.00 0.14 0.01 73 1011.3
20260507094503 51 287 0.0 5.2 0.00 0.14 0.01 75 1011.1
20260507094003 51 292 0.9 5.2 0.00 0.14 0.01 77 1011.2
20260507093504 51 318 0.0 3.5 0.00 0.14 0.01 77 1011.3
20260507093003 51 290 0.9 6.1 0.00 0.14 0.01 79 1011.2
20260507092503 51 277 0.9 6.1 0.00 0.14 0.01 81 1011.1
20260507092003 51 283 0.0 2.6 0.00 0.14 0.01 84 1011.2
20260507091503 52 281 0.0 4.3 0.00 0.14 0.01 85 1011.2
20260507091003 52 286 0.0 7.0 0.00 0.14 0.01 86 1011.2
20260507090503 52 289 0.9 7.0 0.00 0.14 0.01 88 1011.1
20260507090004 52 289 0.9 6.1 0.00 0.14 0.01 88 1011.1
20260507085503 52 288 0.9 7.8 0.00 0.14 0.01 89 1010.9
20260507085005 52 288 0.9 7.8 0.00 0.14 0.01 89 1010.9
20260507084717 52 292 0.9 6.1 0.00 0.14 0.01 90 1010.9
20260507084003 52 285 0.9 6.1 0.00 0.14 0.01 91 1010.9
20260507083504 52 291 0.0 6.1 0.00 0.14 0.01 92 1011.0
20260507083004 52 302 0.0 5.2 0.00 0.14 0.01 92 1010.8
20260507082503 52 304 0.0 3.5 0.00 0.14 0.01 92 1010.7
20260507082004 52 293 0.0 4.3 0.00 0.14 0.01 92 1010.6
20260507081506 52 298 0.0 5.2 0.00 0.14 0.01 92 1010.4
20260507081004 52 301 0.0 5.2 0.00 0.14 0.01 93 1010.4
20260507080503 52 301 0.0 4.3 0.00 0.14 0.01 93 1010.4
20260507080004 52 282 0.0 0.9 0.00 0.14 0.01 93 1010.4
20260507075503 52 304 0.0 2.6 0.00 0.14 0.01 93 1010.4
20260507075004 52 285 0.0 3.5 0.00 0.14 0.01 92 1010.4
20260507074503 52 285 0.9 3.5 0.00 0.14 0.01 92 1010.4
20260507074003 52 288 0.9 4.3 0.00 0.14 0.01 92 1010.4
20260507073503 52 286 0.0 4.3 0.00 0.14 0.01 92 1010.3
20260507073003 52 272 0.0 2.6 0.00 0.14 0.01 91 1010.3
20260507072503 52 273 0.0 2.6 0.00 0.14 0.01 91 1010.3
20260507072003 52 270 0.0 1.7 0.00 0.14 0.01 90 1010.5
20260507071504 52 331 0.0 3.5 0.00 0.14 0.01 89 1010.7
20260507071004 52 322 0.0 7.0 0.00 0.14 0.01 89 1010.7
20260507070503 52 298 0.9 7.0 0.00 0.14 0.01 89 1010.8
20260507070217 52 292 0.9 7.0 0.00 0.14 0.01 88 1010.9
20260507065503 53 302 1.7 7.0 0.01 0.14 0.01 88 1010.9
20260507065004 53 313 0.9 7.0 0.01 0.14 0.01 88 1010.9
20260507064503 53 5 0.0 2.6 0.01 0.14 0.01 88 1010.9
20260507064003 53 0 0.0 0.0 0.01 0.14 0.01 88 1010.8
20260507063504 53 18 0.0 1.7 0.01 0.14 0.01 88 1010.9
20260507063003 53 18 0.0 1.7 0.01 0.14 0.01 88 1010.9
20260507062503 53 6 0.0 0.9 0.01 0.14 0.01 87 1010.8
20260507062003 53 9 0.0 0.9 0.01 0.14 0.01 87 1010.8
20260507061504 53 355 0.0 2.6 0.01 0.14 0.01 86 1010.8
20260507061004 53 332 0.0 4.3 0.01 0.14 0.01 86 1010.9
20260507060718 53 306 0.0 4.3 0.01 0.14 0.01 86 1010.9
20260507060004 54 335 0.0 4.3 0.00 0.13 0.00 86 1010.9
20260507055504 54 344 0.9 5.2 0.00 0.13 0.00 86 1010.8
20260507055003 54 337 0.9 5.2 0.00 0.13 0.00 86 1010.7
20260507054718 54 326 0.9 5.2 0.00 0.13 0.00 87 1010.7
20260507054003 54 289 0.9 7.8 0.00 0.13 0.00 89 1010.7
20260507053504 54 328 0.0 4.3 0.00 0.13 0.00 91 1010.7
20260507053004 54 310 0.0 4.3 0.00 0.13 0.00 92 1010.8
20260507052503 54 293 0.0 4.3 0.00 0.13 0.00 92 1010.9
20260507052003 54 0 0.0 0.0 0.00 0.13 0.00 92 1010.7
20260507051503 54 0 0.0 0.0 0.00 0.13 0.00 92 1010.7
20260507051217 54 0 0.0 0.0 0.00 0.13 0.00 92 1010.7
20260507050503 54 294 0.9 4.3 0.00 0.13 0.00 92 1010.8
20260507050003 54 287 0.9 5.2 0.00 0.13 0.00 92 1010.7
20260507045503 54 288 1.7 7.8 0.00 0.13 0.00 92 1010.7
20260507045218 54 286 1.7 7.8 0.00 0.13 0.00 92 1010.5
20260507044503 55 285 0.9 7.0 0.00 0.13 0.00 92 1010.7
20260507044003 55 289 0.9 7.0 0.00 0.13 0.00 92 1010.9
20260507043503 55 292 0.9 6.1 0.00 0.13 0.00 92 1010.7
20260507043003 55 290 0.9 6.1 0.00 0.13 0.00 92 1010.9
20260507042503 55 287 0.0 6.1 0.00 0.13 0.00 91 1010.7
20260507042004 56 292 0.0 6.1 0.01 0.13 0.00 91 1010.5
20260507041717 56 290 0.0 6.1 0.01 0.13 0.00 91 1010.4
20260507041003 56 289 0.0 7.8 0.01 0.13 0.00 89 1010.5
20260507040504 56 308 0.9 7.8 0.02 0.13 0.00 89 1010.6
20260507040004 56 302 0.9 7.8 0.02 0.13 0.00 89 1010.4
20260507035503 56 299 1.7 7.0 0.02 0.13 0.13 89 1010.5
20260507035003 56 299 0.9 7.0 0.02 0.13 0.13 89 1010.2
20260507034503 56 309 0.9 9.6 0.02 0.13 0.13 89 1010.2
20260507034004 56 304 1.7 9.6 0.02 0.13 0.13 89 1010.2
20260507033717 56 301 1.7 9.6 0.02 0.13 0.13 90 1010.3
20260507033003 56 320 1.7 8.7 0.02 0.13 0.13 90 1010.1
20260507032504 57 294 1.7 8.7 0.02 0.13 0.13 90 1009.8
20260507032004 57 289 0.9 8.7 0.01 0.12 0.12 90 1010.2
20260507031503 57 288 0.9 5.2 0.01 0.12 0.12 90 1010.2
20260507031003 58 283 0.9 7.0 0.01 0.12 0.12 90 1010.3
20260507030503 58 289 0.9 7.0 0.00 0.11 0.11 89 1010.3
20260507030004 58 293 0.9 7.0 0.00 0.11 0.11 89 1010.1
20260507025504 58 303 0.9 6.1 0.00 0.11 0.11 89 1009.9
20260507025003 58 322 0.9 7.8 0.00 0.11 0.11 88 1009.9
20260507024503 59 296 1.7 7.8 0.00 0.11 0.11 86 1009.8
20260507024004 59 292 1.7 8.7 0.00 0.11 0.11 85 1010.1
20260507023503 59 294 1.7 8.7 0.00 0.11 0.11 86 1010.2
20260507023218 59 300 1.7 8.7 0.00 0.11 0.11 86 1010.0
20260507022503 60 310 2.6 7.8 0.00 0.11 0.11 87 1009.8
20260507022218 60 310 1.7 7.8 0.00 0.11 0.11 87 1009.7
20260507021503 60 297 0.9 4.3 0.00 0.11 0.11 90 1009.6
20260507021003 60 294 0.9 6.1 0.00 0.11 0.11 90 1009.7
20260507020504 60 292 0.9 6.1 0.00 0.11 0.11 90 1009.6
20260507020003 60 293 0.9 5.2 0.00 0.11 0.11 90 1009.6
20260507015504 60 292 0.9 5.2 0.00 0.11 0.11 90 1009.8
20260507015004 60 285 0.9 4.3 0.00 0.11 0.11 89 1009.7
20260507014503 60 286 0.9 4.3 0.00 0.11 0.11 89 1009.7
20260507014003 60 272 0.9 7.0 0.00 0.11 0.11 88 1009.5
20260507013503 60 273 2.6 8.7 0.00 0.11 0.11 88 1009.4
20260507013217 61 275 2.6 8.7 0.00 0.11 0.11 87 1009.8
20260507012503 61 284 2.6 8.7 0.00 0.11 0.11 87 1009.8
20260507012004 61 281 3.5 7.8 0.00 0.11 0.11 86 1009.8
20260507011503 62 280 2.6 7.8 0.00 0.11 0.11 86 1010.0
20260507010503 62 288 2.6 8.7 0.00 0.11 0.11 86 1009.7
20260507010004 62 287 3.5 8.7 0.00 0.11 0.11 87 1010.1
20260507005503 62 285 2.6 8.7 0.00 0.11 0.11 87 1010.0
20260507005003 63 285 1.7 7.8 0.00 0.11 0.11 87 1009.9
20260507004503 63 289 1.7 8.7 0.00 0.11 0.11 86 1009.7
20260507004217 63 290 1.7 9.6 0.00 0.11 0.11 86 1009.7
20260507003503 63 287 3.5 10.4 0.00 0.11 0.11 86 1009.6
20260507003004 64 289 3.5 10.4 0.00 0.11 0.11 86 1009.5
20260507002503 64 288 4.3 12.2 0.00 0.11 0.11 87 1009.3
20260507002217 64 283 5.2 12.2 0.00 0.11 0.11 88 1009.3
20260507001504 65 270 2.6 10.4 0.00 0.11 0.11 89 1009.3
20260507001004 65 268 2.6 7.0 0.00 0.11 0.11 89 1009.1
20260507000503 65 268 2.6 7.0 0.00 0.11 0.11 89 1008.8
20260507000219 65 267 1.7 7.0 0.00 0.11 0.11 90 1008.8
20260506235503 66 266 0.9 5.2 0.00 0.11 0.11 91 1008.8
20260506235005 66 266 0.0 3.5 0.00 0.11 0.11 91 1008.4
20260506234503 66 279 0.0 3.5 0.00 0.11 0.11 90 1008.2
20260506234003 66 279 0.0 3.5 0.00 0.11 0.11 90 1008.2
20260506233504 66 269 0.9 5.2 0.00 0.11 0.11 89 1008.3
20260506233003 66 267 0.9 5.2 0.00 0.11 0.11 89 1008.3
20260506232504 67 271 0.0 4.3 0.00 0.11 0.11 88 1008.3
20260506232003 67 283 0.0 4.3 0.00 0.11 0.11 87 1008.2
20260506231504 67 282 0.0 4.3 0.00 0.11 0.11 86 1008.1
20260506231003 67 0 0.0 0.0 0.00 0.11 0.11 85 1008.1
20260506230504 67 0 0.0 0.0 0.00 0.11 0.11 85 1008.0
20260506230003 68 256 0.0 3.5 0.00 0.11 0.11 85 1008.0
20260506225503 68 263 0.0 3.5 0.00 0.11 0.11 84 1008.1
20260506225003 68 267 0.0 3.5 0.00 0.11 0.11 84 1008.3
20260506224717 68 252 0.0 0.9 0.00 0.11 0.11 84 1008.2
20260506224218 68 248 0.0 0.9 0.00 0.11 0.11 83 1008.0
20260506223503 68 0 0.0 0.0 0.00 0.11 0.11 83 1008.1
20260506223004 68 0 0.0 0.0 0.00 0.11 0.11 84 1008.1
20260506222503 68 0 0.0 0.0 0.00 0.11 0.11 84 1008.1
20260506222004 68 0 0.0 0.0 0.00 0.11 0.11 83 1008.1
20260506221717 68 0 0.0 0.0 0.00 0.11 0.11 83 1008.0
20260506221003 68 0 0.0 0.0 0.00 0.11 0.11 84 1008.1
20260506220503 68 0 0.0 0.0 0.00 0.11 0.11 84 1008.0
20260506220003 68 0 0.0 0.0 0.00 0.11 0.11 84 1008.0
20260506215503 68 0 0.0 0.0 0.00 0.11 0.11 84 1008.1
20260506215004 68 0 0.0 0.0 0.00 0.11 0.11 84 1008.2
20260506214503 68 0 0.0 0.0 0.00 0.11 0.11 84 1008.0
20260506214003 68 171 0.0 5.2 0.00 0.11 0.11 84 1008.0
20260506213717 68 171 0.0 5.2 0.00 0.11 0.11 84 1008.0
20260506213218 68 171 0.0 5.2 0.00 0.11 0.11 83 1007.9
20260506212503 68 0 0.0 0.0 0.00 0.11 0.11 84 1007.8
20260506212004 68 0 0.0 0.0 0.00 0.11 0.11 83 1007.6
20260506211717 68 0 0.0 0.0 0.00 0.11 0.11 83 1007.6
20260506211003 68 0 0.0 0.0 0.00 0.11 0.11 83 1007.5
20260506210504 68 0 0.0 0.0 0.00 0.11 0.11 83 1007.4
20260506210003 68 0 0.0 0.0 0.00 0.11 0.11 83 1007.3
20260506205503 68 0 0.0 0.0 0.00 0.11 0.11 83 1007.4
20260506205217 68 0 0.0 0.0 0.00 0.11 0.11 83 1007.5
20260506204503 68 0 0.0 0.0 0.00 0.11 0.11 83 1007.4
20260506204004 69 0 0.0 0.0 0.00 0.11 0.11 82 1007.5
20260506203504 69 269 0.0 3.5 0.00 0.11 0.11 80 1007.4
20260506203217 69 269 0.0 3.5 0.00 0.11 0.11 80 1007.5
20260506202503 69 0 0.0 0.0 0.00 0.11 0.11 79 1007.6
20260506202217 69 270 0.0 2.6 0.00 0.11 0.11 79 1007.6
20260506201504 69 270 0.0 2.6 0.00 0.11 0.11 79 1007.5
20260506201217 69 0 0.0 0.0 0.00 0.11 0.11 79 1007.5
20260506200503 69 0 0.0 0.0 0.00 0.11 0.11 80 1007.5
20260506200217 69 0 0.0 0.0 0.00 0.11 0.11 80 1007.6
20260506195504 68 0 0.0 0.0 0.00 0.11 0.11 80 1007.5
20260506195217 68 0 0.0 0.0 0.00 0.11 0.11 80 1007.5
20260506194504 69 227 0.0 1.7 0.00 0.11 0.11 78 1007.5
20260506194217 69 227 0.0 2.6 0.00 0.11 0.11 78 1007.6
20260506193718 69 219 0.0 2.6 0.00 0.11 0.11 77 1007.6
20260506193003 70 257 0.0 2.6 0.00 0.11 0.11 78 1007.6
20260506192503 70 264 0.0 3.5 0.00 0.11 0.11 77 1007.4
20260506192004 70 263 0.0 3.5 0.00 0.11 0.11 76 1007.6
20260506191503 70 189 0.0 6.1 0.00 0.11 0.11 76 1007.6
20260506191003 70 187 0.0 6.1 0.00 0.11 0.11 76 1007.6
20260506190504 70 0 0.0 0.0 0.00 0.11 0.11 77 1007.6
20260506190003 70 176 0.0 2.6 0.00 0.11 0.11 76 1007.7
20260506185504 70 201 0.0 2.6 0.00 0.11 0.11 77 1007.7
20260506185003 70 201 0.0 1.7 0.00 0.11 0.11 77 1007.6
20260506184503 70 181 0.0 2.6 0.00 0.11 0.11 79 1007.7
20260506184003 69 187 0.0 2.6 0.00 0.11 0.11 80 1007.7
20260506183718 69 186 0.0 2.6 0.00 0.11 0.11 80 1007.6
20260506183004 69 207 0.0 1.7 0.00 0.11 0.11 81 1007.8
20260506182503 68 190 0.0 3.5 0.00 0.11 0.11 81 1007.8
20260506182219 68 199 0.0 6.1 0.00 0.11 0.11 81 1007.8
20260506181718 67 191 0.0 6.1 0.00 0.11 0.11 83 1007.8
20260506181003 67 197 0.9 3.5 0.00 0.11 0.11 85 1007.8
20260506180503 66 184 0.9 8.7 0.00 0.11 0.11 87 1007.9
20260506180004 66 185 0.9 8.7 0.00 0.11 0.11 88 1007.9
20260506175503 65 198 0.9 7.8 0.00 0.11 0.11 89 1008.0
20260506175003 64 206 0.9 7.8 0.00 0.11 0.11 90 1008.0
20260506174503 64 215 0.0 4.3 0.00 0.11 0.11 90 1008.1
20260506174003 64 204 0.0 2.6 0.00 0.11 0.11 91 1008.2
20260506173504 64 191 0.9 7.0 0.00 0.11 0.11 92 1008.1
20260506173003 64 187 0.9 7.0 0.00 0.11 0.11 93 1008.0
20260506172503 63 194 0.0 7.0 0.00 0.11 0.11 94 1008.0
20260506172004 63 207 0.0 6.1 0.00 0.11 0.11 95 1008.0
20260506171503 63 197 0.0 6.1 0.00 0.11 0.11 95 1008.0
20260506171003 62 189 0.9 7.0 0.00 0.11 0.11 96 1008.0
20260506170717 62 189 0.9 7.0 0.00 0.11 0.11 96 1008.1
20260506170003 62 186 0.0 6.1 0.00 0.11 0.11 97 1008.2
20260506165503 62 196 0.0 3.5 0.00 0.11 0.11 97 1008.1
20260506165005 62 195 0.0 3.5 0.00 0.11 0.11 97 1008.2
20260506164717 61 193 0.0 3.5 0.00 0.11 0.11 98 1008.0
20260506164003 61 192 0.9 13.0 0.00 0.11 0.11 98 1008.2
20260506163719 61 189 1.7 13.0 0.00 0.11 0.11 98 1008.2
20260506163218 61 193 1.7 11.3 0.00 0.11 0.11 98 1008.2
20260506162503 61 192 0.9 7.8 0.00 0.11 0.11 99 1008.1
20260506162003 61 191 0.9 7.8 0.00 0.11 0.11 99 1008.0
20260506161503 61 200 0.0 7.0 0.00 0.11 0.11 99 1008.2
20260506161003 61 190 0.9 7.0 0.00 0.11 0.11 100 1008.4
20260506160504 61 192 1.7 10.4 0.00 0.11 0.11 100 1008.4
20260506160003 61 191 1.7 10.4 0.01 0.11 0.11 100 1008.3
20260506155717 61 195 1.7 9.6 0.01 0.11 0.11 100 1008.4
20260506155004 61 198 0.9 10.4 0.01 0.11 0.11 100 1008.4
20260506154503 61 185 1.7 10.4 0.01 0.11 0.11 100 1008.4
20260506154003 61 187 3.5 14.8 0.02 0.11 0.11 100 1008.3
20260506153504 61 188 3.5 14.8 0.02 0.11 0.11 100 1008.0
20260506153003 60 186 1.7 14.8 0.02 0.11 0.11 100 1008.1
20260506152503 60 186 1.7 8.7 0.02 0.11 0.11 100 1008.2
20260506152217 60 188 1.7 8.7 0.02 0.11 0.11 100 1008.4
20260506151503 60 181 1.7 7.8 0.02 0.11 0.11 100 1008.4
20260506151003 60 183 1.7 7.8 0.02 0.11 0.11 100 1008.1
20260506150718 60 189 0.9 6.1 0.02 0.11 0.11 100 1008.3
20260506150003 60 188 1.7 8.7 0.01 0.10 0.10 100 1008.6
20260506145718 60 187 1.7 8.7 0.01 0.10 0.10 100 1008.7
20260506145003 60 176 0.9 7.0 0.02 0.10 0.10 100 1009.0
20260506144504 60 185 0.9 10.4 0.02 0.10 0.10 100 1009.1
20260506144003 60 178 0.9 10.4 0.01 0.09 0.09 100 1009.1
20260506143503 60 180 0.9 7.8 0.02 0.09 0.09 100 1008.8
20260506143004 60 187 0.9 7.8 0.02 0.09 0.09 100 1008.8
20260506142718 60 187 0.9 7.8 0.02 0.09 0.09 100 1008.8
20260506142217 60 176 0.0 5.2 0.03 0.09 0.09 100 1008.7
20260506141503 60 177 0.9 7.8 0.04 0.09 0.09 100 1008.6
20260506141003 60 184 2.6 12.2 0.04 0.09 0.09 100 1008.6
20260506140718 60 184 2.6 12.2 0.04 0.09 0.09 99 1008.6
20260506140004 60 186 2.6 8.7 0.05 0.09 0.09 99 1008.5
20260506135503 60 187 2.6 11.3 0.06 0.09 0.09 99 1008.5
20260506135004 60 184 1.7 11.3 0.05 0.08 0.08 99 1008.5
20260506134503 60 181 1.7 10.4 0.06 0.08 0.08 99 1008.7
20260506134003 60 185 2.6 10.4 0.06 0.08 0.08 98 1008.9
20260506133503 60 185 2.6 8.7 0.06 0.07 0.07 98 1009.1
20260506133004 60 186 1.7 8.7 0.06 0.07 0.07 98 1009.0
20260506132503 60 187 1.7 8.7 0.05 0.06 0.06 98 1008.9
20260506132003 60 184 0.9 8.7 0.05 0.06 0.06 97 1008.9
20260506131503 60 186 0.0 6.1 0.05 0.05 0.05 96 1009.0
20260506131219 60 186 0.0 6.1 0.05 0.05 0.05 96 1009.1
20260506130503 61 184 0.9 7.8 0.05 0.05 0.05 95 1009.1
20260506130004 61 184 0.9 8.7 0.04 0.04 0.04 94 1009.1
20260506125503 61 186 0.9 8.7 0.03 0.03 0.03 94 1009.0
20260506125003 61 189 0.9 7.8 0.03 0.03 0.03 93 1008.8
20260506124717 61 184 0.9 7.8 0.03 0.03 0.03 93 1008.9
20260506124003 62 181 0.9 7.8 0.02 0.02 0.02 91 1008.9
20260506123717 62 182 0.9 7.0 0.02 0.02 0.02 91 1008.9
20260506123004 62 176 0.0 5.2 0.01 0.01 0.01 89 1009.0
20260506122717 62 175 0.0 5.2 0.01 0.01 0.01 89 1009.1
20260506122003 62 192 0.0 3.5 0.01 0.01 0.01 87 1009.1
20260506121503 63 195 0.0 3.5 0.00 0.00 0.00 85 1009.2
20260506121004 63 200 0.0 9.6 0.00 0.00 0.00 83 1009.2
20260506120504 63 210 0.9 9.6 0.00 0.00 0.00 82 1009.4
20260506120004 63 213 0.9 6.1 0.00 0.00 0.00 81 1009.4
20260506115717 63 207 0.9 6.1 0.00 0.00 0.00 81 1009.4
20260506115003 63 199 0.0 4.3 0.00 0.00 0.00 80 1009.4
20260506114503 64 205 0.0 4.3 0.00 0.00 0.00 80 1009.4
20260506114218 64 202 0.0 4.3 0.00 0.00 0.00 80 1009.4
20260506113503 64 192 0.9 9.6 0.00 0.00 0.00 79 1009.1
20260506113218 64 191 0.9 9.6 0.00 0.00 0.00 78 1009.0
20260506112503 64 195 0.9 9.6 0.00 0.00 0.00 77 1008.9
20260506112003 64 189 0.9 6.1 0.00 0.00 0.00 77 1008.8
20260506111717 64 183 0.9 6.1 0.00 0.00 0.00 77 1008.7